Location: Clinton NY
(43.0598°N, 75.3602°W)
Time: 23:33:28
(UTC-04:00)

Daily predictions for brighter satellites

Satellite Brightness Start Highest point End
(mag) Time Altitude Azimuth Time Altitude Azimuth Time Altitude Azimuth
Cosmos 1933 4.0 20:26:47 10° SSE 20:30:24 33° E 20:34:03 10° NNE
Cosmos 1992 Rocket 4.1 20:27:01 10° S 20:32:09 59° ESE 20:37:18 10° NNE
Cosmos 2026 Rocket 4.0 20:26:35 10° N 20:32:49 73° E 20:38:55 10° SSE
Cosmos 1455 4.1 20:33:24 10° SW 20:36:52 34° WNW 20:40:21 10° N
Meteor 2-20 Rocket 4.5 20:31:17 10° N 20:37:26 84° E 20:43:35 10° S
Cosmos 1733 Rocket 3.2 20:34:21 10° N 20:38:46 60° E 20:43:10 10° SSE
USA 267 3.4 20:36:03 10° NE 20:42:36 82° NW 20:49:09 10° SW
Cosmos 1862 3.3 20:40:03 10° N 20:44:05 66° E 20:48:06 10° SSE
Helios 1A 3.1 20:40:31 10° SSE 20:44:42 64° ENE 20:48:56 10° N
Cosmos 1862 Rocket 3.6 20:45:20 10° S 20:49:45 64° E 20:54:12 10° NNE
Cosmos 2263 Rocket 2.3 20:53:21 10° NNW 20:58:56 77° WSW 21:04:29 10° SSE
Cosmos 968 Rocket 3.6 20:59:24 10° NNW 21:04:35 64° ENE 21:09:05 14° SSE
USA 186 3.2 21:04:38 10° SSW 21:07:14 33° W 21:10:01 10° NNW
SAR-Lupe-4 3.8 21:03:44 10° S 21:07:18 72° WSW 21:10:54 10° NNW
Cosmos 1939 Rocket 2.8 21:03:28 10° SSE 21:07:29 76° ENE 21:11:29 10° N
Cosmos 1703 Rocket 4.0 21:06:22 10° SSE 21:10:30 40° E 21:14:38 10° NNE
Cosmos 2322 Rocket 3.3 21:06:15 10° SW 21:11:40 48° WNW 21:17:07 10° NNE
Atlas Centaur 2 3.6 21:09:31 10° SW 21:15:09 29° S 21:19:23 18° SE
Cosmos 1825 4.1 21:13:39 10° NNW 21:17:01 30° W 21:20:22 10° SSW
USA 234 3.3 21:12:08 16° ESE 21:17:29 76° NE 21:24:01 10° NW
Cosmos 2360 Rocket 2.1 21:13:34 10° SSW 21:19:13 81° ESE 21:24:55 10° NNE
Abrixas rocket 3.9 21:16:39 10° WNW 21:19:37 30° N 21:22:26 11° ENE
SJ-11-01 4.4 21:15:32 10° S 21:20:12 77° WSW 21:24:53 10° NNW
COSMOS 2428 3.2 21:16:15 10° S 21:21:27 38° ESE 21:26:40 10° NE
Cosmos 2266 Rocket 4.1 21:15:37 10° N 21:21:52 62° E 21:27:05 16° SSE
Meteor 1-29 3.3 21:18:54 10° N 21:22:22 68° WNW 21:25:47 10° SSW
Envisat 3.4 21:18:08 10° S 21:23:10 65° WSW 21:28:14 10° NNW
CZ-4B DEB 3.6 21:22:33 11° S 21:25:16 45° W 21:28:12 10° NNW
Lacrosse 4 Rocket 4.0 21:22:49 10° WNW 21:25:43 18° WSW 21:28:40 10° SSW
Helios 1B rocket 3.2 21:22:03 10° N 21:26:04 55° WNW 21:30:04 10° SSW
Cosmos 1867 3.7 21:21:32 10° NW 21:27:00 74° WSW 21:30:53 19° SSE
H-2A R/B 3.3 21:28:32 19° E 21:30:25 24° ENE 21:34:17 10° NNE
Milstar 3 4.3 21:25:05 10° WSW 21:30:31 20° SSW 21:33:52 14° SSE
ATLAS 5 CENTAUR R/B 2.8 21:24:42 10° NW 21:30:39 63° WSW 21:35:39 17° SSE
NOAA 11 4.4 21:29:03 22° SE 21:32:29 55° ENE 21:37:50 10° N
Cosmos 2221 Rocket 3.7 21:32:02 20° SSE 21:34:53 55° E 21:39:14 10° NNE
YAOGAN 11 4.4 21:33:34 28° SE 21:35:29 48° ENE 21:39:39 10° N
Meteor 1-14 Rocket 4.2 21:30:46 10° N 21:36:30 80° E 21:40:44 19° SSE
Cosmos 2322 3.7 21:31:12 10° SSW 21:36:56 86° WNW 21:42:40 10° NNE
Meteor 1-25 Rocket 4.3 21:32:01 10° N 21:37:33 60° ENE 21:40:41 25° SSE
ARGOS 3.5 21:37:29 26° SE 21:40:08 47° ENE 21:45:18 10° N
Cosmos 1606 3.9 21:42:02 26° E 21:42:02 26° E 21:44:53 10° NNE
SL-16 R/B 4.2 21:37:41 10° WSW 21:42:37 30° NW 21:47:36 10° N
ERS-1 Rocket 3.0 21:42:01 21° SSE 21:45:26 83° WSW 21:50:30 10° NNW
SeaSat 1 3.2 21:44:57 27° ESE 21:47:00 40° NE 21:51:36 10° NNW
Meteor 1-20 Rocket 4.2 21:41:42 10° N 21:47:16 64° ENE 21:50:09 29° SSE
H-2A R/B 3.5 21:53:54 21° ENE 21:54:25 22° ENE 21:57:45 10° NNE
Cosmos 2237 Rocket 3.3 21:58:36 25° E 21:58:36 25° E 22:02:31 10° NE
Cosmos 2333 4.1 21:53:28 10° SSW 21:59:08 69° ESE 22:04:53 10° NNE
NOSS 3-1 (C) 3.5 21:54:38 12° S 21:59:43 48° ESE 22:05:48 10° NE
YAOGAN 6 3.8 21:58:12 22° SSW 22:00:07 39° W 22:03:31 10° NNW
Cosmos 1844 Rocket 2.6 21:54:55 10° NNW 22:00:31 75° ENE 22:02:44 38° SE
Cosmos 2333 Rocket 2.7 22:00:04 35° SE 22:00:54 37° ESE 22:06:09 10° NE
SPOT 5 2.7 21:59:59 40° SSE 22:01:41 75° ENE 22:06:16 10° N
Cosmos 2278 Rocket 3.1 21:56:35 10° N 22:01:45 35° NE 22:03:38 28° E
SL-08 RB Rocket 3.8 22:01:17 44° SE 22:02:27 58° ENE 22:06:56 10° N
Meteor 2-6 Rocket 4.5 22:01:35 34° SSE 22:03:56 53° E 22:09:42 10° NNE
USA 229 DEB 3.9 21:59:09 10° SW 22:05:58 73° NW 22:12:57 10° NNE
USA 229 3.9 21:59:15 10° SW 22:06:04 73° NW 22:13:03 10° NNE
MetOp-A 4.2 22:04:25 29° S 22:07:13 76° WSW 22:12:36 10° NNW
CZ-4C R/B 3.4 22:01:16 10° NNW 22:08:01 48° NE 22:11:50 28° ESE
Nadezhda 2 Rocket 4.5 22:03:07 10° N 22:09:36 87° E 22:12:56 31° S
Cosmos 1782 Rocket 4.3 22:10:12 10° NNW 22:14:25 48° W 22:16:25 28° SSW
ASTEX 1 4.0 22:15:28 38° E 22:15:56 39° ENE 22:20:33 10° N
NOSS 3-1 (A) 3.5 22:15:18 42° SSE 22:16:23 47° ESE 22:22:27 10° NE
SPOT 1/Viking Rocket 3.5 22:16:34 47° SSE 22:18:03 76° ENE 22:23:17 10° N
Cosmos 1777 Rocket 4.4 22:14:37 10° NNW 22:19:48 57° WSW 22:21:49 35° SSW
Cosmos 2219 Rocket 2.0 22:20:01 36° S 22:22:16 69° ESE 22:27:53 10° NNE
USA 245 4.1 22:21:27 38° S 22:23:36 72° WSW 22:28:21 10° NNW
Okean 1-7 3.9 22:21:00 20° SW 22:23:45 47° WNW 22:28:03 10° N
Okean 2 Rocket 3.9 22:25:09 10° NNW 22:29:30 47° W 22:30:55 35° SW
S3M 4.1 22:28:26 47° SE 22:29:42 56° E 22:35:45 10° NNE
Landsat 7 3.8 22:29:26 61° ESE 22:29:51 64° ENE 22:34:35 10° N
Cosmos 1782 3.2 22:30:21 51° SW 22:31:02 60° W 22:35:01 10° N
TRAILBLAZER 4.5 22:30:04 46° SW 22:31:23 88° WNW 22:35:59 10° NE
Cosmos 2084 3.5 22:33:54 10° NW 22:37:17 64° N 22:37:17 64° N
Cosmos 1633 3.2 22:36:21 10° N 22:39:16 54° NNW 22:39:16 54° NNW
Nimbus 7 Rocket 4.5 22:34:14 10° NNE 22:40:11 78° WNW 22:43:21 30° SSW
Cosmos 1602 4.3 22:39:51 10° N 22:42:53 53° N 22:42:53 53° N
ATLAS 3B R/B 4.4 22:38:22 10° NNW 22:43:47 23° NNE 22:47:54 14° ENE
Terra 1.9 22:45:02 63° ENE 22:45:02 63° ENE 22:49:42 10° N
Cosmos 1346 Rocket 3.5 22:46:34 49° NNE 22:46:34 49° NNE 22:49:33 10° NNE
Meteor 1-27 Rocket 3.6 22:46:37 65° SSE 22:47:28 80° E 22:53:03 10° NNE
deb Chang Zheng 4 4.2 22:51:03 10° NNE 22:54:23 49° NE 22:54:23 49° NE
Abrixas rocket 4.4 22:53:33 10° WNW 22:55:07 25° NW 22:55:07 25° NW
Cosmos 2297 4.3 22:52:33 10° NNW 22:58:01 44° ENE 22:58:30 43° ENE
CZ-4B R/B 4.3 22:54:53 10° NNE 22:58:07 37° NE 22:58:07 37° NE
USA 234 4.2 22:59:28 30° SSW 23:00:50 32° SW 23:06:35 10° WNW
Geosat 4.4 22:56:12 10° NNE 23:00:06 50° ENE 23:00:06 50° ENE
Cosmos 1745 Rocket 3.9 22:55:23 10° N 23:01:46 90° ENE 23:02:51 64° S
Spot 4 4.4 23:02:26 48° NE 23:02:26 48° NE 23:06:31 10° N
CARTOSAT-1 3.9 23:02:56 63° NNW 23:02:56 63° NNW 23:06:36 10° NNW
Cosmos 2151 Rocket 4.5 22:59:40 10° NNW 23:03:52 42° W 23:03:58 42° W
Atlas Centaur 2 4.0 22:57:50 10° WSW 23:02:01 25° SSW 23:02:01 25° SSW
COSMOS 2428 4.2 23:00:36 10° WSW 23:05:44 34° NW 23:10:55 10° N
H-2A R/B 2.7 23:09:10 42° WSW 23:09:36 43° W 23:14:18 10° NNW
IGS 5A 4.2 23:10:49 51° NNW 23:10:49 51° NNW 23:14:00 10° NNW
Cosmos 2285 Rocket 4.4 23:13:34 47° E 23:13:34 47° E 23:18:58 10° NNE
Meteor 1-11 Rocket 3.9 23:07:42 10° NNW 23:13:08 61° W 23:13:39 58° WSW
Cosmos 1980 3.8 23:13:33 61° WSW 23:14:28 73° WNW 23:20:09 10° NNE
Cosmos 2298 Rocket 4.0 23:10:24 10° NNW 23:15:27 77° NNE 23:15:27 77° NNE
CZ-4 R/B 4.2 23:11:20 10° NNE 23:15:17 60° NNE 23:15:17 60° NNE
Timation 1 Rocket 4.2 23:11:48 10° NNW 23:17:48 85° WSW 23:18:00 83° SSW
NOSS 0 Rocket 4.2 23:16:17 39° SW 23:18:36 66° WNW 23:24:45 10° NNE
Okean 1 Rocket 3.7 23:14:26 10° N 23:17:55 54° NNW 23:17:55 54° NNW
Cosmos 1674 Rocket 4.5 23:20:35 45° NW 23:20:35 45° NW 23:24:13 10° N
SL-16 R/B 3.0 23:22:16 39° ENE 23:22:16 39° ENE 23:26:09 10° NE
SeaSat 1 3.8 23:24:45 29° WSW 23:24:45 29° WSW 23:28:54 10° NW
H-2A R/B 3.5 23:31:01 33° WNW 23:31:01 33° WNW 23:34:13 10° NNW
Cosmos 1937 Rocket 3.7 23:27:14 10° NNW 23:31:47 67° NNW 23:31:47 67° NNW
Cosmos 1536 4.5 23:30:51 10° NNW 23:33:20 32° NW 23:33:20 32° NW
Cosmos 990 Rocket 4.4 23:36:07 10° NNW 23:40:20 60° NNW 23:40:20 60° NNW
Cosmos 2237 Rocket 2.9 23:40:20 41° W 23:41:40 49° WNW 23:47:13 10° NNE
Cosmos 1975 Rocket 4.4 23:46:04 36° N 23:46:04 36° N 23:48:47 10° N
Cosmos 2333 Rocket 3.6 23:41:57 21° WSW 23:45:09 36° NW 23:50:27 10° N
Cosmos 2278 Rocket 3.2 23:40:41 10° NW 23:45:29 37° W 23:45:29 37° W
CZ-2C R/B 4.2 23:41:19 10° NNE 23:44:26 26° ENE 23:44:26 26° ENE
ALOS 2 4.4 23:48:06 25° NE 23:48:06 25° NE 23:50:30 10° N
Cosmos 2315 Rocket 3.9 23:51:45 83° N 23:51:45 83° N 23:57:45 10° N
